• Processing (Info)

  • MPEC 2023-K110 : 2023 KX1

    The following Minor Planet Electronic Circular may be linked-to from your own Web pages, but must not otherwise be redistributed electronically.

    A form allowing access to any MPEC is at the bottom of this page.


    Read MPEC 2023-K109 Read MPEC 2023-K111


    M.P.E.C. 2023-K110                                 Issued 2023 May 23, 09:32 UT
    
         The Minor Planet Electronic Circulars contain information on unusual
             minor planets, routine data on comets and natural satellites,
             and occasional editorial announcements.  They are published
        on behalf of Division F of the International Astronomical Union by the
              Minor Planet Center, Smithsonian Astrophysical Observatory,
                              Cambridge, MA 02138, U.S.A.
    			  
                 Prepared using the Tamkin Foundation Computer Network
    
                                  MPC@CFA.HARVARD.EDU
                URL https://www.minorplanetcenter.net/    ISSN 1523-6714
    
                                    2023 KX1                                 
    
    
    Observations:
         K23K01X*1C2023 05 22.40521516 11 09.740+13 52 32.59         18.31GVEK110703
         K23K01X 1C2023 05 22.40644016 11 07.408+13 50 44.16         18.28GVEK110703
         K23K01X 1C2023 05 22.40889116 11 02.944+13 47 05.78         18.13GVEK110703
         K23K01X KC2023 05 22.42930416 10 25.835+13 16 11.68         17.93GVEK110I52
         K23K01X KC2023 05 22.42987516 10 24.816+13 15 19.40         17.93GVEK110I52
         K23K01X KC2023 05 22.43044516 10 23.783+13 14 27.06         18.06GVEK110I52
         K23K01X KC2023 05 22.43102016 10 22.746+13 13 34.39         18.20GVEK110I52
         K23K01X  C2023 05 22.44625 16 10 04.75 +12 50 03.6          17.92iUEK110I41
         K23K01X  C2023 05 22.44659 16 10 04.15 +12 49 32.1          17.92iUEK110I41
         K23K01X KC2023 05 22.44702416 09 54.112+12 48 54.07         17.96GVEK110I52
         K23K01X KC2023 05 22.44753216 09 53.212+12 48 06.88         18.09GVEK110I52
         K23K01X KC2023 05 22.44803216 09 52.319+12 47 20.29         17.98GVEK110I52
         K23K01X KC2023 05 22.44853416 09 51.440+12 46 33.42         18.00GVEK110I52
         K23K01X  C2023 05 22.44863 16 10 00.53 +12 46 21.2          18.53gUEK110I41
         K23K01X  C2023 05 22.44898 16 09 59.89 +12 45 49.5          18.53gUEK110I41
         K23K01X KC2023 05 22.60431716 07 02.56 +09 13 19.3          18.2 GVEK110474
         K23K01X KC2023 05 22.60477716 07 01.69 +09 12 30.7          18.4 GVEK110474
         K23K01X KC2023 05 22.60616316 06 58.92 +09 10 05.6          18.3 GVEK110474
         K23K01X KC2023 05 22.60662516 06 57.97 +09 09 16.7          18.0 GVEK110474
         K23K01X KC2023 05 22.85303016 02 35.65 +00 16 42.5                VEK110104
         K23K01X KC2023 05 22.85556316 02 30.05 +00 11 11.2          17.5 GVEK110104
         K23K01X KC2023 05 22.85809716 02 24.41 +00 05 38.6          17.2 GVEK110104
         K23K01X KC2023 05 22.86315816 01 35.40 -00 08 24.9          17.7 GXEK110L99
         K23K01X KC2023 05 22.86336116 02 06.47 -00 06 46.1          17.6 GXEK110595
         K23K01X KC2023 05 22.86575916 02 01.05 -00 12 03.2          17.6 GXEK110595
         K23K01X KC2023 05 22.86680416 01 27.08 -00 16 27.2          17.5 GXEK110L99
         K23K01X KC2023 05 22.86807316 01 56.12 -00 16 51.3          17.5 GVEK110L01
         K23K01X KC2023 05 22.86815616 01 55.60 -00 17 19.9          17.2 GXEK110595
         K23K01X KC2023 05 22.86885616 01 54.34 -00 18 35.3          17.6 GVEK110L01
         K23K01X KC2023 05 22.86963816 01 52.56 -00 20 19.3          17.3 GVEK110L01
         K23K01X KC2023 05 22.87042016 01 50.77 -00 22 02.4          17.3 GVEK110L01
         K23K01X KC2023 05 22.87045016 01 18.61 -00 24 29.8          17.7 GXEK110L99
         K23K01X KC2023 05 22.87120116 01 48.99 -00 23 45.9          17.6 GVEK110L01
         K23K01X KC2023 05 22.89300216 01 04.793-01 11 55.24         16.8 GVEK110K63
         K23K01X KC2023 05 22.89463316 01 00.858-01 15 35.94         17.0 GVEK110K63
         K23K01X KC2023 05 22.89687716 00 55.526-01 20 39.16         17.8 GVEK110K63
         K23K01X KC2023 05 22.89695916 00 35.90 -01 22 39.0          17.0 RoEK110K88
         K23K01X KC2023 05 22.89939716 00 30.02 -01 28 11.1          17.6 RoEK110K88
         K23K01X KC2023 05 22.92876915 59 52.495-02 36 57.82         17.6 GVEK110J95
         K23K01X KC2023 05 22.92959715 59 50.594-02 38 52.15         18.5 GVEK110J95
         K23K01X KC2023 05 22.93046815 59 48.509-02 40 53.54         17.8 GVEK110J95
         K23K01X KC2023 05 22.93136515 59 46.394-02 42 58.75         17.8 GVEK110J95
         K23K01X KC2023 05 22.93372315 59 39.012-02 48 30.24         17.7 GVEK110Z80
         K23K01X KC2023 05 22.93639515 59 34.21 -02 54 28.6          17.2 VqEK110J69
         K23K01X KC2023 05 22.93899815 59 27.95 -03 00 35.1          17.4 VqEK110J69
         K23K01X KC2023 05 22.94015715 59 23.640-03 03 31.97         17.9 GVEK110Z80
         K23K01X KC2023 05 22.94420615 59 15.32 -03 12 47.9          17.5 VqEK110J69
         K23K01X KC2023 05 22.96730615 57 50.662-04 01 30.58         17.8 rZEK110L34
         K23K01X KC2023 05 22.98203515 57 23.16 -04 40 46.3                VEK110204
         K23K01X KC2023 05 22.98532515 57 14.52 -04 48 43.3          17.5 GVEK110204
         K23K01X KC2023 05 23.00972915 55 54.917-05 44 23.28         17.1 rZEK110L34
    
    Observer details:
    104 San Marcello Pistoiese.  Observers P. Bacci, M. Maestripieri.  Measurers
        P. Bacci, L. Tesi, G. Fagioli.  0.60-m F4 Reflector + CCD.
    204 Schiaparelli Observatory.  Observer L. Buzzi.  0.84-m f/3.5 reflector +
        CCD.
    474 Mount John Observatory, Lake Tekapo.  Observers A. C. Gilmore, P. M.
        Kilmartin.  Measurer P. M. Kilmartin.  0.6-m f/6.2 reflector + CCD.
    595 Farra d'Isonzo.  Observer E. Pettarin.  0.61-m f/4.5 reflector + CCD.
    703 Catalina Sky Survey.  Observer G. J. Leonard.  Measurers E. J.
        Christensen, D. Fay, J. B. Fazekas, D. C. Fuls, A. R. Gibbs, A. D. Grauer,
        H. Groeller, J. K. Hogan, R. A. Kowalski, S. M. Larson, G. J. Leonard, D.
        Rankin, R. L. Seaman, A. Serrano, F. C. Shelly, K. W. Wierzchos.  0.68-m
        Schmidt + 10K CCD.
    I41 Palomar Mountain--ZTF.  Observers K. Venkataramani, T. Prince, G. Helou,
        Q.-Z. Ye, D. Kulkarni, V. Swain, C. Y. Hsu, Y. Cheng.  Measurers F. Masci,
        D. Shupe, K. Venkataramani, Q.-Z. Ye.  1.2-m f/2.44 Oschin-Schmidt + CCD.
    I52 Steward Observatory, Mt. Lemmon Station.  Observer J. B. Fazekas.
        Measurers E. J. Christensen, D. Fay, J. B. Fazekas, D. C. Fuls, A. R.
        Gibbs, A. D. Grauer, H. Groeller, J. K. Hogan, R. A. Kowalski, S. M.
        Larson, G. J. Leonard, D. Rankin, R. L. Seaman, A. Serrano, F. C. Shelly,
        K. W. Wierzchos.  1.0-m prime focus + CCD.
    J69 North Observatory, Clanfield.  Observer D. Briggs.  0.3-m f/5.4 Newtonian
        reflector + CCD.
    J95 Great Shefford.  Observer P. Birtwhistle.  0.41-m f/6.3 Schmidt-Cassegrain
        + CCD.
    K63 G. Pascoli Observatory, Castelvecchio Pascoli.  Observer R. Bacci.  0.41-m
        f/3.2 Reflector + CCD.
    K88 GINOP-KHK, Piszkesteto.  Observers K. Sarneczky, C. Kalup.  Measurers K.
        Sarneczky, A. Pal, B. Csak, Z. Kuli.  0.60-m Schmidt + CCD.
    L01 Visnjan Observatory, Tican.  Observer K. Korlevic.  1.0-m f/2.9 reflector
        + CCD.
    L34 Galhassin Robotic Telescope, Isnello.  Observer A. Nastasi.  0.40-m f/3.8
        400mm Reflector + CCD + CCD.
    L99 Novoselki.  Observer A. M. Kozhukhov.  0.30-m f/1.0 astrograf + CCD.
    Z80 Northolt Branch Observatory.  Observer G. Wells.  Measurers G. Wells, D.
        Bamberger.  0.25-m f/8.0 Ritchey-Chretien + CCD.
    
    Orbital elements:
    2023 KX1                                                 Earth MOID = 0.0033 AU
    Epoch 2023 Feb. 25.0 TT = JDT 2460000.5                 Bell                    
    M 244.25938              (2000.0)            P               Q                  
    n   0.92336551     Peri.  217.25638     +0.15016370     +0.97844676             
    a   1.0444483      Node    61.78288     -0.86392984     +0.19957433             
    e   0.0339176      Incl.    9.25717     -0.48070375     -0.05302857             
    P   1.07           H   28.80          G   0.15           U   5                  
    Residuals in seconds of arc
    230522 703  0.1+  0.0     230522 474  0.5-  0.5+    230522 K63  0.4-  0.1-
    230522 703  1.0-  1.2+    230522 474  0.9-  0.1+    230522 K63  0.1-  1.0+
    230522 703  0.3-  2.7+    230522 104  0.4-  0.5-    230522 K88  0.1-  0.7+
    230522 I52  0.2-  1.1+    230522 104  0.8-  0.3-    230522 K88  0.4-  0.1-
    230522 I52  0.0   1.2+    230522 104  1.2-  0.5-    230522 J95  0.3-  0.6-
    230522 I52  0.0   1.1+    230522 L99  1.4-  0.2+    230522 J95  0.5+  0.5+
    230522 I52  0.0   1.1+    230522 595  0.2+  0.1+    230522 J95  0.1+  0.4+
    230522 I41  0.4-  0.0     230522 595  0.0   0.2-    230522 J95  0.3+  0.3+
    230522 I41  0.1-  0.1+    230522 L99  0.0   0.0     230522 Z80  0.1+  0.6+
    230522 I52  0.0   1.0+    230522 L01  0.3-  0.5+    230522 J69  0.2+  0.6+
    230522 I52  0.0   1.1+    230522 595  0.2-  0.4+    230522 J69  0.2+  1.0-
    230522 I52  0.1-  1.2+    230522 L01  0.2-  0.3+    230522 Z80  0.8+  0.3+
    230522 I52  0.0   1.1+    230522 L01  0.2-  0.0     230522 J69  0.4-  1.4-
    230522 I41  1.2+  0.9-    230522 L01  0.2-  0.7+    230522 L34  1.2+  0.2+
    230522 I41  1.1+  0.1+    230522 L99  0.3-  0.9+    230522 204  0.3+  0.4-
    230522 474  1.4-  0.5+    230522 L01  0.0   0.9+    230522 204  0.5+  0.2-
    230522 474  0.7-  0.1+    230522 K63  0.4+  0.3-    230523 L34  1.5+  1.5-
    
    Ephemeris:
    2023 KX1                 a,e,i = 1.04, 0.03, 9                   q = 1.0090
    Date    TT    R. A. (2000) Decl.     Delta      r    Elong.  Phase     V
    2023 04 23    16 58 11.1 +53 09 10   0.08419 1.0294   104.4    71.1    26.0
    ...
    2023 05 08    16 59 27.9 +52 24 05   0.04420 1.0220   105.9    71.8    24.6
    ...
    2023 05 16    16 52 45.8 +48 39 01   0.02188 1.0186   109.9    68.9    23.0
    ...
    2023 05 22    16 19 24.1 +22 19 03   0.0055691.0162   137.0    42.8    19.2
    2023 05 23    15 56 56.6 -04 51 03   0.0036221.0158   164.4    15.5    17.5
    2023 05 24    15 01 23.1 -52 24 29   0.0034291.0154   146.2    33.7    17.9
    ...
    2023 05 30    05 31 52.4 -63 11 32   0.01859 1.0124    85.9    93.1    23.5
    ...
    2023 06 07    05 12 50.9 -57 50 17   0.04081 1.0088    80.6    97.1    25.4
    ...
    2023 06 22    05 07 08.4 -54 43 36   0.08049 1.0040    79.0    96.5    26.8
    
    M. P. C. Staff               (C) Copyright 2023 MPC           M.P.E.C. 2023-K110
    


    Read MPEC 2023-K109 Read MPEC 2023-K111


    MPEC number:

    Enter an MPEC number in one of the following forms:

    • 1997-B01 (the full form)
    • J97B01 (the packed version of the full form)
    • B01 (the abbreviated form)